{"data":{"norad_id":59316,"epoch":"2026-05-25T02:28:27.950592Z","epoch_age_seconds":73096,"freshness":"FRESH","line1":"1 59316U 24056W   26145.10310128 -.00000092  00000+0  61989-5 0  9994","line2":"2 59316  43.0032 163.2394 0001379 279.9833  80.0863 15.27572294122797","mean_motion":15.27572294,"eccentricity":0.0001379,"inclination_deg":43.0032,"raan_deg":163.2394,"arg_perigee_deg":279.9833,"mean_anomaly_deg":80.0863,"bstar":6.1989e-6,"rev_number":12279,"period_min":94.267224252236,"perigee_km":482.12600992824,"apogee_km":484.01833141751,"semimajor_km":6861.2091706729,"source":"CELESTRAK","updated_at":"2026-05-25T13:38:18.901696Z"}}